Location: Kellogg
(38.0159°N, 90.0546°W)
Time: 08:45:29
(UTC+00:00)

Altair - Pass Details

Date: 20 September 2024
Orbit: 1501 x 1682 km, 47.2° (Epoch: 07 October)

Event Time Altitude Azimuth Distance (km) Brightness Sun altitude
Rises 15:50:06 0° 290° (WNW) 4,933 9.8 43.2°
Reaches altitude 10° 15:54:52 10° 272° (W) 3,927 9.4 43.8°
Maximum altitude 16:00:25 16° 238° (WSW) 3,401 9.4 44.6°
Drops below altitude 10° 16:05:56 10° 203° (SSW) 3,858 10.0 45.3°
Sets 16:10:37 0° 184° (S) 4,806 10.6 45.9°
